Tracking 29892 objects as of 21-Nov-2024
HD Live streaming from Space Station
objects crossing your sky now

SL-3 DEB

Track SL-3 DEB now!
10-day predictions


NORAD ID: 9907
Int'l Code: 1977-024C
Perigee: 612.9 km
Apogee: 625.9 km
Inclination: 82.9 °
Period: 96.9 minutes
Semi major axis: 6990 km
RCS: 0.013 m2 (small)
Launch date: April 5, 1977
Source: Commonwealth of Independent States (former USSR) (CIS)
Launch site: PLESETSK MISSILE AND SPACE COMPLEX (PKMTR)

Note: This is SATELLITE DEBRIS
Your satellite tracking list
Your tracking list is empty




NASA's NSSDC Master Catalog

Two Line Element Set (TLE):
1 09907U 77024C   24324.43636726  .00041306  00000-0  47647-2 0  9991
2 09907  82.9061 329.1401 0009275 100.7534 259.4728 14.85424847442213
Source of the keplerian elements: AFSPC